Powrót do katalogu

DMSP 5D-2 F13 DEB

AktywnyPO
NORAD 42278·DEBRIS·🇺🇸 United States

Wystrzelony Mar 24, 1995 z Vandenberg Space Force Base

Loading…

Następne Przeloty (najbliższe 24 godziny)

TLE

ŚwieżeSource: Space-Track

Epoka: Sep 14, 2026, 20:16 UTC

1 42278U 95015GU  26257.84491377  .00010210  00000-0  22192-2 0  9990
2 42278  98.8711 296.9252 0020946 339.3979  20.6372 14.58105565580775

Śledź DMSP 5D-2 F13 DEB w czasie rzeczywistym z AllMySat

Download on the App Store